• Join FlightAware (Why Join?)
  • Login
  • US Flag 
09:06AM EDT


 

Airport Tracker/Info


-or-


 

Live Flight TrackerFlight Track Log ✈ JST401 ✈ 11-Nov-2013 ✈ YBCG / OOL - YSSY / SYD

Flight Track Log - Related Links

Times and Time Zones

All times are in EST time to prevent confusion due to time zone crossing. See the JST401 flight status page for this flight to view local times or setup timezone preferences in your user account.

Time Position Orientation Groundspeed Altitude Reporting Facility
EST Latitude Longitude Course Direction KTS MPH feet Rate Location/Type
03:34PM -28.1929 153.5238 159° South 179 206 1,400  Level Aus ATC (RADAR)
03:35PM -28.2234 153.5369 159° South 204 235 2,000 960 Climbing Aus ATC (RADAR)
03:35PM -28.2360 153.5420 159° South 241 277 2,200 2,040 Climbing FlightAware
03:35PM -28.2590 153.5490 165° South 249 287 3,200 2,760 Climbing FlightAware
03:36PM -28.2952 153.5183 165° South 243 280 5,100 2,520 Climbing Aus ATC (RADAR)
03:36PM -28.3010 153.5070 238° Southwest 268 308 5,300 1,680 Climbing FlightAware
03:36PM -28.3122 153.4875 238° Southwest 267 307 5,800 1,680 Climbing Aus ATC (RADAR)
03:37PM -28.3300 153.4580 238° Southwest 315 362 6,500 1,680 Climbing FlightAware
03:37PM -28.3404 153.4404 238° Southwest 307 353 6,800 1,620 Climbing Aus ATC (RADAR)
03:38PM -28.3720 153.3880 236° Southwest 360 414 7,700 2,280 Climbing FlightAware
03:38PM -28.3950 153.3510 235° Southwest 358 412 9,100 2,940 Climbing FlightAware
03:38PM -28.4190 153.3110 236° Southwest 365 420 10,200 2,400 Climbing FlightAware
03:39PM -28.4530 153.2540 236° Southwest 377 434 11,500 2,220 Climbing FlightAware
03:39PM -28.4539 153.2530 236° Southwest 363 418 11,500 2,040 Level Aus ATC (RADAR)
03:40PM -28.4920 153.1900 235° Southwest 389 448 12,900 2,100 Climbing FlightAware
03:40PM -28.5230 153.1380 236° Southwest 398 458 14,000 2,460 Climbing FlightAware
03:41PM -28.5620 153.0730 236° Southwest 398 458 15,600 2,580 Climbing FlightAware
03:41PM -28.5713 153.0574 236° Southwest 392 451 15,900 2,100 Climbing Aus ATC (RADAR)
03:41PM -28.5973 153.0137 236° Southwest 396 456 16,800 1,920 Climbing Aus ATC (RADAR)
03:42PM -28.6260 152.9650 236° Southwest 410 472 17,600 1,860 Climbing FlightAware
03:42PM -28.6344 152.9513 236° Southwest 404 465 17,900 2,400 Climbing Aus ATC (RADAR)
03:42PM -28.6601 152.9069 236° Southwest 407 468 18,900 2,100 Climbing FlightAware ADS-B (NZNE)
03:43PM -28.6945 152.8487 236° Southwest 414 476 19,900 1,680 Climbing FlightAware ADS-B (NZNE)
03:43PM -28.7267 152.7940 236° Southwest 414 476 20,700 1,440 Climbing FlightAware ADS-B (NZNE)
03:44PM -28.7698 152.7207 236° Southwest 424 488 21,600 1,440 Climbing FlightAware ADS-B (NZNE)
03:45PM -28.8034 152.6638 236° Southwest 430 495 22,400 1,560 Climbing FlightAware ADS-B (NZNE)
03:46PM -28.8895 152.5679 224° Southwest 452 520 24,000 1,440 Climbing FlightAware ADS-B (NZNE)
03:46PM -28.9490 152.5414 201° Southwest 467 537 24,600 1,140 Climbing FlightAware ADS-B (NZNE)
03:47PM -29.0160 152.5118 201° Southwest 470 541 25,200 1,080 Climbing Aus ATC (RADAR)
03:47PM -29.0250 152.5070 201° Southwest 471 542 25,300 1,020 Climbing FlightAware
03:47PM -29.0870 152.4795 201° Southwest 472 543 25,800 960 Climbing Aus ATC (RADAR)
03:47PM -29.1010 152.4730 201° Southwest 476 548 25,900 900 Climbing FlightAware
03:48PM -29.1794 152.4373 201° Southwest 479 551 26,500 840 Climbing Aus ATC (RADAR)
03:48PM -29.1850 152.4340 201° Southwest 481 554 26,500 1,200 Level FlightAware
03:49PM -29.3050 152.3800 201° Southwest 478 550 27,800 1,440 Climbing FlightAware
03:49PM -29.3146 152.3771 201° Southwest 482 555 28,000 1,380 Climbing Aus ATC (RADAR)
03:49PM -29.3480 152.3610 201° Southwest 475 547 28,300 1,320 Climbing FlightAware
03:50PM -29.3860 152.3448 201° Southwest 475 547 28,800 1,260 Climbing Aus ATC (RADAR)
03:50PM -29.4571 152.3124 201° Southwest 473 544 29,400 -900 Climbing Aus ATC (RADAR)
03:50PM -29.4390 152.3210 201° Southwest 475 547 28,300 720 Descending FlightAware
03:50PM -29.4800 152.3010 203° Southwest 472 543 29,600 2,220 Climbing FlightAware
03:51PM -29.5970 152.2470 202° Southwest 467 537 31,000 1,500 Climbing FlightAware
03:51PM -29.6081 152.2438 203° Southwest 469 540 31,100 1,320 Climbing Aus ATC (RADAR)
03:52PM -29.6580 152.2209 202° Southwest 466 536 31,600 1,080 Climbing Aus ATC (RADAR)
03:52PM -29.7050 152.1980 202° Southwest 464 534 32,000 1,020 Climbing FlightAware
03:52PM -29.7276 152.1889 202° Southwest 460 529 32,200  Climbing Aus ATC (RADAR)
03:53PM -29.7510 152.1770 202° Southwest 464 534 32,000 -240 Descending FlightAware
03:53PM -29.8120 152.1500 201° Southwest 464 534 32,000  Level FlightAware
03:54PM -29.8800 152.1200 201° Southwest 464 534 32,000 1,860 Level FlightAware
03:55PM -30.0345 152.0464 201° Southwest 458 527 35,200  Climbing Aus ATC (RADAR)
03:55PM -30.0040 152.0650 201° Southwest 464 534 32,000 -4,140 Descending FlightAware
03:56PM -30.0660 152.0380 201° Southwest 464 534 32,000  Level FlightAware
03:56PM -30.1270 152.0110 201° Southwest 464 534 32,000 4,980 Level FlightAware
03:57PM -30.2172 151.9610 201° Southwest 447 514 36,000 6,480 Climbing Aus ATC (RADAR)
03:57PM -30.2657 151.9382 201° Southwest 451 519 36,000 -9,240 Level Aus ATC (RADAR)
03:57PM -30.1920 151.9820 201° Southwest 464 534 32,000 -9,600 Descending FlightAware
03:57PM -30.2330 151.9640 201° Southwest 464 534 32,000 7,020 Level FlightAware
03:58PM -30.3338 151.9066 201° Southwest 454 522 36,000 4,800 Climbing Aus ATC (RADAR)
03:58PM -30.4116 151.8708 201° Southwest 452 520 36,000 -4,620 Level Aus ATC (RADAR)
03:58PM -30.3380 151.9170 201° Southwest 464 534 32,000 -6,720 Descending FlightAware
03:59PM -30.3790 151.8990 201° Southwest 464 534 32,000 4,200 Level FlightAware
03:59PM -30.5471 151.8079 201° Southwest 451 519 36,000  Climbing Aus ATC (RADAR)
03:59PM -30.4370 151.8730 201° Southwest 464 534 32,000  Descending FlightAware
04:00PM -30.6055 151.7806 201° Southwest 453 521 36,000  Climbing Aus ATC (RADAR)
04:00PM -30.5160 151.8380 201° Southwest 464 534 32,000 -4,620 Descending FlightAware
04:01PM -30.5770 151.8110 201° Southwest 464 534 32,000  Level FlightAware
04:01PM -30.6180 151.7920 202° Southwest 464 534 32,000  Level FlightAware
04:02PM -30.6770 151.7660 202° Southwest 464 534 32,000 5,700 Level FlightAware
04:02PM -30.8423 151.6703 202° Southwest 461 531 36,100 7,440 Climbing Aus ATC (RADAR)
04:02PM -30.8921 151.6472 202° Southwest 462 532 36,100  Level Aus ATC (RADAR)
04:03PM -30.9614 151.6140 202° Southwest 463 533 36,100 -180 Level Aus ATC (RADAR)
04:03PM -30.9560 151.6170 202° Southwest 462 532 36,000 -180 Descending FlightAware
04:04PM -31.0409 151.5763 202° Southwest 463 533 36,000  Level Aus ATC (RADAR)
04:04PM -31.0180 151.5870 202° Southwest 462 532 36,000  Level FlightAware
04:04PM -31.1106 151.5436 202° Southwest 463 533 36,000  Level Aus ATC (RADAR)
04:04PM -31.0960 151.5510 202° Southwest 462 532 36,000  Level FlightAware
04:05PM -31.1880 151.5070 202° Southwest 466 536 36,000  Level FlightAware
04:05PM -31.2490 151.4780 202° Southwest 467 537 36,000  Level FlightAware
04:05PM -31.2604 151.4732 202° Southwest 466 536 36,000  Level Aus ATC (RADAR)
04:06PM -31.3260 151.4420 202° Southwest 467 537 36,000  Level FlightAware
04:07PM -31.4265 151.3945 202° Southwest 448 516 36,000  Level Aus ATC (RADAR)
04:07PM -31.4500 151.3840 200° South 449 517 36,000  Level FlightAware
04:07PM -31.4730 151.3743 200° South 445 512 36,000  Level Aus ATC (RADAR)
04:08PM -31.5130 151.3570 200° South 451 519 36,000  Level FlightAware
04:08PM -31.5414 151.3441 200° South 448 516 36,000  Level Aus ATC (RADAR)
04:08PM -31.5790 151.3270 201° Southwest 448 516 36,000 60 Level FlightAware
04:09PM -31.6886 151.2785 201° Southwest 446 513 36,100  Climbing Aus ATC (RADAR)
04:09PM -31.6900 151.2770 201° Southwest 446 513 36,000 -180 Descending FlightAware
04:10PM -31.7700 151.2410 201° Southwest 446 513 36,000  Level FlightAware
04:10PM -31.8308 151.2136 201° Southwest 441 507 36,000  Level Aus ATC (RADAR)
04:10PM -31.8370 151.2110 201° Southwest 447 514 36,000  Level FlightAware
04:11PM -31.8950 151.1850 201° Southwest 450 518 36,000  Level FlightAware
04:11PM -31.9590 151.1560 201° Southwest 452 520 36,000  Level FlightAware
04:12PM -31.9869 151.1440 201° Southwest 450 518 36,000  Level Aus ATC (RADAR)
04:12PM -32.0354 151.1212 201° Southwest 449 517 36,000  Level Aus ATC (RADAR)
04:12PM -32.0250 151.1260 201° Southwest 454 522 36,000 -240 Level FlightAware
04:13PM -32.0930 151.0960 200° South 455 524 35,900 -1,320 Descending FlightAware
04:13PM -32.1860 151.0540 201° Southwest 452 520 34,300 -2,820 Descending FlightAware
04:14PM -32.2290 151.0350 200° South 466 536 32,800 -3,480 Descending FlightAware
04:14PM -32.3056 151.0007 200° South 464 534 31,100 -2,940 Descending Aus ATC (RADAR)
04:14PM -32.3178 150.9949 200° South 466 536 30,800 -2,400 Descending FlightAware ADS-B (YSSY / SYD)
04:15PM -32.3843 150.9664 200° South 460 529 29,500 -1,860 Descending FlightAware ADS-B (YSSY / SYD)
04:15PM -32.4450 150.9479 194° South 440 506 28,900 -1,140 Descending FlightAware ADS-B (YSSY / SYD)
04:16PM -32.5182 150.9356 188° South 411 473 28,300 -1,200 Descending FlightAware ADS-B (YSSY / SYD)
04:17PM -32.5737 150.9334 182° South 391 450 27,600 -2,640 Descending FlightAware ADS-B (YSSY / SYD)
04:17PM -32.6381 150.9380 177° South 415 478 25,500 -2,640 Descending FlightAware ADS-B (YSSY / SYD)
04:18PM -32.7134 150.9516 177° South 411 473 24,400 -1,440 Descending Aus ATC (RADAR)
04:18PM -32.7620 150.9599 177° South 413 475 24,000 -300 Descending FlightAware ADS-B (YSSY / SYD)
04:19PM -32.8505 151.0037 157° South 392 451 24,000  Level FlightAware ADS-B (YSSY / SYD)
04:19PM -32.8600 151.0230 120° Southeast 389 448 24,000  Level FlightAware ADS-B (YSSY / SYD)
04:19PM -32.8652 151.0433 107° East 386 444 24,000  Level FlightAware ADS-B (YSSY / SYD)
04:20PM -32.8667 151.0636 95° East 376 433 24,000  Level FlightAware ADS-B (YSSY / SYD)
04:20PM -32.8509 151.1186 71° East 348 400 24,000 -180 Level FlightAware ADS-B (YSSY / SYD)
04:20PM -32.8416 151.1312 49° Northeast 338 389 23,900 -360 Descending FlightAware ADS-B (YSSY / SYD)
04:20PM -32.8290 151.1430 38° Northeast 330 380 23,900 -480 Level FlightAware ADS-B (YSSY / SYD)
04:21PM -32.8092 151.1540 25° Northeast 311 358 23,700 -1,380 Descending FlightAware ADS-B (YSSY / SYD)
04:21PM -32.7804 151.1585 North 303 349 23,100 -1,740 Descending FlightAware ADS-B (YSSY / SYD)
04:22PM -32.7346 151.1443 345° North 299 344 22,100 -2,220 Descending FlightAware ADS-B (YSSY / SYD)
04:22PM -32.7243 151.1324 316° Northwest 301 346 21,500 -1,200 Descending FlightAware ADS-B (YSSY / SYD)
04:23PM -32.7264 151.0545 316° Northwest 335 386 21,000 -480 Descending FlightAware ADS-B (YSSY / SYD)
04:23PM -32.7275 151.0490 316° Northwest 338 389 21,100  Climbing Aus ATC (RADAR)
04:23PM -32.7502 150.9944 245° Southwest 331 381 21,000 -300 Descending FlightAware ADS-B (YSSY / SYD)
04:24PM -32.7702 150.9433 245° Southwest 327 376 20,800 -1,020 Descending FlightAware ADS-B (YSSY / SYD)
04:24PM -32.7964 150.9035 232° Southwest 339 390 20,000 -1,680 Descending FlightAware ADS-B (YSSY / SYD)
04:24PM -32.8134 150.8930 207° Southwest 350 403 19,700 -1,440 Descending FlightAware ADS-B (YSSY / SYD)
04:25PM -32.8660 150.8930 207° Southwest 358 412 18,900 -1,380 Descending FlightAware
04:25PM -32.8777 150.8966 207° Southwest 338 389 18,800 -2,580 Descending Aus ATC (RADAR)
04:25PM -32.9017 150.9085 160° South 361 415 18,000 -2,640 Descending FlightAware ADS-B (YSSY / SYD)
04:26PM -32.9500 150.9281 161° South 355 409 16,800 -2,340 Descending FlightAware ADS-B (YSSY / SYD)
04:26PM -33.0105 150.9522 162° South 349 402 15,300 -1,800 Descending FlightAware ADS-B (YSSY / SYD)
04:27PM -33.0709 150.9767 162° South 336 387 14,500 -1,320 Descending Aus ATC (RADAR)
04:27PM -33.0940 150.9862 162° South 337 388 14,100 -1,440 Descending FlightAware ADS-B (YSSY / SYD)
04:28PM -33.1458 151.0072 161° South 329 379 13,300 -1,620 Descending FlightAware ADS-B (YSSY / SYD)
04:29PM -33.1936 151.0267 161° South 324 373 12,300 -1,680 Descending FlightAware ADS-B (YSSY / SYD)
04:29PM -33.2646 151.0499 165° South 324 373 11,000 -1,500 Descending FlightAware ADS-B (YSSY / SYD)
04:30PM -33.3110 151.0582 171° South 318 366 10,300 -1,500 Descending FlightAware ADS-B (YSSY / SYD)
04:30PM -33.3546 151.0587 179° South 318 366 9,500 -1,380 Descending FlightAware ADS-B (YSSY / SYD)
04:31PM -33.3831 151.0577 182° South 303 349 9,200 -780 Descending FlightAware ADS-B (YSSY / SYD)
04:31PM -33.4311 151.0559 182° South 287 330 8,800 -720 Descending FlightAware ADS-B (YWST)
04:32PM -33.4477 151.0584 173° South 282 325 8,600 -960 Descending FlightAware ADS-B (YWST)
04:32PM -33.4635 151.0626 167° South 276 318 8,400 -1,200 Descending FlightAware ADS-B (YWST)
04:32PM -33.4891 151.0696 167° South 274 315 8,000 -1,200 Descending FlightAware ADS-B (YWST)
04:32PM -33.5106 151.0814 155° Southeast 262 302 7,600 -960 Descending FlightAware ADS-B (YWST)
04:33PM -33.5213 151.1017 122° Southeast 246 283 7,400 -720 Descending FlightAware ADS-B (YWST)
04:33PM -33.5222 151.1085 100° East 238 274 7,300 -300 Descending FlightAware ADS-B (YWST)
04:33PM -33.5212 151.1293 87° East 229 264 7,300 -360 Level FlightAware ADS-B (YWST)
04:33PM -33.5212 151.1293 87° East 227 261 7,200 -1,620 Descending FlightAware ADS-B (YWST)
04:33PM -33.5191 151.1530 84° East 218 251 6,800 -840 Descending FlightAware ADS-B (YSSY / SYD)
04:34PM -33.5387 151.1847 126° Southeast 220 253 6,500 -660 Descending FlightAware ADS-B (YSSY / SYD)
04:34PM -33.5500 151.1859 175° South 225 259 6,300 -1,200 Descending FlightAware ADS-B (YSSY / SYD)
04:34PM -33.5529 151.1853 190° South 226 260 6,200 -900 Descending FlightAware ADS-B (YSSY / SYD)
04:35PM -33.5722 151.1777 198° South 227 261 5,900 -840 Descending FlightAware ADS-B (YWST)
04:35PM -33.5986 151.1643 203° Southwest 221 254 5,600 -780 Descending FlightAware ADS-B (YSSY / SYD)
04:35PM -33.6035 151.1617 204° Southwest 216 249 5,400 -660 Descending FlightAware ADS-B (YWST)
04:36PM -33.6335 151.1455 204° Southwest 203 234 5,200 -420 Descending FlightAware ADS-B (YWST)
04:36PM -33.6420 151.1408 205° Southwest 211 243 5,200 -360 Level FlightAware ADS-B (YSSY / SYD)
04:36PM -33.6475 151.1377 205° Southwest 186 214 5,100 -660 Descending FlightAware ADS-B (YSSY / SYD)
04:36PM -33.6641 151.1279 206° Southwest 179 206 4,900 -420 Descending FlightAware ADS-B (YWST)
04:36PM -33.6724 151.1244 199° South 174 200 4,900 -300 Level FlightAware ADS-B (YWST)
04:37PM -33.6802 151.1230 189° South 171 197 4,800 -600 Descending FlightAware ADS-B (YWST)
04:37PM -33.6882 151.1229 181° South 171 197 4,700 -480 Descending FlightAware ADS-B (YWST)
04:37PM -33.6891 151.1230 176° South 166 191 4,600 -360 Descending FlightAware ADS-B (YSBK / BWU)
04:37PM -33.7180 151.1283 171° South 165 190 4,500 -600 Descending FlightAware ADS-B (YWST)
04:38PM -33.7329 151.1321 168° South 160 184 4,200 -780 Descending FlightAware ADS-B (YWST)
04:38PM -33.7482 151.1361 168° South 158 182 4,000 -780 Descending FlightAware ADS-B (YWST)
04:38PM -33.7616 151.1397 168° South 155 178 3,700 -960 Descending FlightAware ADS-B (YWST)
04:39PM -33.7779 151.1439 168° South 154 177 3,300 -840 Descending FlightAware ADS-B (YWST)
04:39PM -33.7920 151.1475 168° South 150 173 3,100 -780 Descending FlightAware ADS-B (YWST)
04:39PM -33.8059 151.1511 168° South 147 169 2,800 -840 Descending FlightAware ADS-B (YWST)
04:40PM -33.8180 151.1542 168° South 150 173 2,600 -840 Descending FlightAware ADS-B (YWST)
04:40PM -33.8348 151.1585 168° South 146 168 2,200 -840 Descending FlightAware ADS-B (YWST)
04:41PM -33.8481 151.1620 168° South 144 166 2,000 -660 Descending FlightAware ADS-B (YWST)
04:41PM -33.8559 151.1640 168° South 143 165 1,800 -780 Descending FlightAware ADS-B (YSBK / BWU)
04:41PM -33.8708 151.1678 168° South 137 158 1,500 -840 Descending FlightAware ADS-B (YWST)
04:41PM -33.8830 151.1710 168° South 134 154 1,300 -720 Descending FlightAware ADS-B (YSBK / BWU)
04:42PM -33.8932 151.1736 168° South 124 143 1,100 -660 Descending FlightAware ADS-B (YWST)
04:42PM -33.9039 151.1764 168° South 123 142 900 -720 Descending FlightAware ADS-B (YWST)
04:42PM -33.9164 151.1797 168° South 121 139 600 -660 Descending FlightAware ADS-B (YWST)
04:43PM -33.9295 151.1831 168° South 123 142 400 -600 Descending FlightAware ADS-B (YWST)
04:43PM -33.9480 151.1880 168° South 120 138 -720 Descending FlightAware
04:44PM -33.9620 151.1920 167° South 80 92  Level FlightAware